K8EMA-4 Weather Reports


time (UTC)temp
F
wind
direction
speed
knots
gust
knots
rain 1hr
in
rain 24hr
in
rain mn
in
humidity
%
barometer
mb
20260903011129 83 277 0.9 4.3 0.00 0.00 0.00 100
20260903010628 83 251 4.3 5.2 0.00 0.00 0.00 100
20260903010128 83 226 1.7 4.3 0.00 0.00 0.00 100
20260903005628 83 217 1.7 5.2 0.00 0.00 0.00 100
20260903005128 83 230 0.9 3.5 0.00 0.00 0.00 100
20260903004630 83 225 1.7 5.2 0.00 0.00 0.00 100
20260903004128 84 208 0.9 5.2 0.00 0.00 0.00 100
20260903003628 84 255 1.7 5.2 0.00 0.00 0.00 100
20260903003128 84 71 2.6 5.2 0.00 0.00 0.00 100
20260903002628 84 250 1.7 4.3 0.00 0.00 0.00 100
20260903002128 84 116 1.7 4.3 0.00 0.00 0.00 100
20260903001628 85 219 2.6 7.0 0.00 0.00 0.00 100
20260903001128 85 236 7.0 7.0 0.00 0.00 0.00 100
20260903000628 85 254 2.6 4.3 0.00 0.00 0.00 100
20260903000128 86 258 0.9 4.3 0.00 0.00 0.00 100
20260902235628 86 99 2.6 6.1 0.00 0.00 0.00 100
20260902235128 86 205 1.7 4.3 0.00 0.00 0.00 100
20260902234628 87 87 3.5 6.1 0.00 0.00 0.00 100
20260902234128 87 112 1.7 7.0 0.00 0.00 0.00 100
20260902233628 89 206 4.3 4.3 0.00 0.00 0.00 100
20260902233128 90 275 2.6 6.1 0.00 0.00 0.00 100
20260902232628 90 192 5.2 6.1 0.00 0.00 0.00 100
20260902232129 91 223 6.1 7.0 0.00 0.00 0.00 100
20260902231628 92 289 3.5 7.0 0.00 0.00 0.00 100
20260902231128 92 285 5.2 7.0 0.00 0.00 0.00 100
20260902230628 92 267 7.0 7.0 0.00 0.00 0.00 100
20260902230128 93 284 5.2 7.0 0.00 0.00 0.00 100
20260902225628 94 61 4.3 7.0 0.00 0.00 0.00 100
20260902225128 93 220 3.5 8.7 0.00 0.00 0.00 100
20260902224628 94 226 5.2 8.7 0.00 0.00 0.00 100
20260902224128 94 206 4.3 7.8 0.00 0.00 0.00 100
20260902223628 94 255 5.2 10.4 0.00 0.00 0.00 100
20260902223128 94 208 4.3 11.3 0.00 0.00 0.00 100
20260902222628 96 209 3.5 7.8 0.00 0.00 0.00 100
20260902222128 94 227 4.3 12.2 0.00 0.00 0.00 100
20260902221628 95 255 5.2 10.4 0.00 0.00 0.00 100
20260902221128 95 180 6.1 8.7 0.00 0.00 0.00 100
20260902220628 96 230 4.3 9.6 0.00 0.00 0.00 100
20260902220128 95 237 5.2 9.6 0.00 0.00 0.00 100
20260902215628 96 244 5.2 9.6 0.00 0.00 0.00 100
20260902215128 96 293 6.1 10.4 0.00 0.00 0.00 100
20260902214628 97 289 4.3 9.6 0.00 0.00 0.00 100
20260902214128 96 246 5.2 13.0 0.00 0.00 0.00 100
20260902213628 97 246 4.3 9.6 0.00 0.00 0.00 100
20260902213128 99 222 7.0 7.8 0.00 0.00 0.00 100
20260902212628 99 199 1.7 8.7 0.00 0.00 0.00 100
20260902212128 98 212 2.6 10.4 0.00 0.00 0.00 100
20260902211628 97 253 6.1 10.4 0.00 0.00 0.00 100
20260902211128 99 270 5.2 8.7 0.00 0.00 0.00 100
20260902210628 99 277 2.6 9.6 0.00 0.00 0.00 100
20260902210128 99 261 5.2 8.7 0.00 0.00 0.00 100
20260902205631 98 253 6.1 11.3 0.00 0.00 0.00 100
20260902205128 98 225 3.5 11.3 0.00 0.00 0.00 100
20260902204629 98 281 4.3 9.6 0.00 0.00 0.00 100
20260902204128 98 261 7.0 12.2 0.00 0.00 0.00 100
20260902203628 97 209 11.3 14.8 0.00 0.00 0.00 100
20260902203128 99 253 0.9 8.7 0.00 0.00 0.00 100
20260902202628 97 250 6.1 9.6 0.00 0.00 0.00 100
20260902202128 100 229 4.3 8.7 0.00 0.00 0.00 100
20260902201628 98 240 5.2 8.7 0.00 0.00 0.00 100
20260902201128 97 234 7.0 10.4 0.00 0.00 0.00 100
20260902200628 99 272 3.5 12.2 0.00 0.00 0.00 100
20260902200128 99 271 8.7 10.4 0.00 0.00 0.00 100
20260902195628 99 236 8.7 9.6 0.00 0.00 0.00 100
20260902195128 98 215 8.7 13.0 0.00 0.00 0.00 100
20260902194628 99 271 7.8 11.3 0.00 0.00 0.00 100
20260902194128 99 232 2.6 10.4 0.00 0.00 0.00 100
20260902193628 97 268 3.5 10.4 0.00 0.00 0.00 100
20260902193128 100 267 8.7 9.6 0.00 0.00 0.00 100
20260902192628 99 289 5.2 13.0 0.00 0.00 0.00 100
20260902192128 98 223 7.0 10.4 0.00 0.00 0.00 100
20260902191628 98 230 4.3 10.4 0.00 0.00 0.00 100
20260902191128 97 215 9.6 12.2 0.00 0.00 0.00 100
20260902190628 100 229 6.1 11.3 0.00 0.00 0.00 100
20260902190128 100 272 2.6 9.6 0.00 0.00 0.00 100
20260902185628 101 295 5.2 11.3 0.00 0.00 0.00 100
20260902185128 101 241 5.2 9.6 0.00 0.00 0.00 100
20260902184629 102 199 7.8 8.7 0.00 0.00 0.00 100
20260902184129 101 271 3.5 7.8 0.00 0.00 0.00 100
20260902183628 99 229 3.5 11.3 0.00 0.00 0.00 100
20260902183128 101 274 4.3 12.2 0.00 0.00 0.00 100
20260902182629 100 278 9.6 10.4 0.00 0.00 0.00 100
20260902182129 100 268 4.3 9.6 0.00 0.00 0.00 100
20260902181628 100 295 5.2 12.2 0.00 0.00 0.00 100
20260902181129 102 191 7.8 8.7 0.00 0.00 0.00 100
20260902180629 100 277 7.0 7.8 0.00 0.00 0.00 100
20260902180129 101 285 7.0 11.3 0.00 0.00 0.00 100
20260902175629 102 267 5.2 9.6 0.00 0.00 0.00 100
20260902175129 97 243 4.3 10.4 0.00 0.00 0.00 100
20260902174629 96 275 5.2 12.2 0.00 0.00 0.00 100
20260902174129 103 279 5.2 9.6 0.00 0.00 0.00 100
20260902173629 101 254 7.0 10.4 0.00 0.00 0.00 100
20260902173130 101 279 7.0 9.6 0.00 0.00 0.00 100
20260902172630 101 275 6.1 10.4 0.00 0.00 0.00 100
20260902172131 102 285 3.5 10.4 0.00 0.00 0.00 100
20260902171631 102 182 3.5 7.8 0.00 0.00 0.00 100
20260902171129 100 302 7.0 8.7 0.00 0.00 0.00 100
20260902170629 103 237 3.5 7.0 0.00 0.00 0.00 100
20260902170129 101 296 4.3 8.7 0.00 0.00 0.00 100
20260902165629 101 262 7.0 8.7 0.00 0.00 0.00 100
20260902165129 102 247 4.3 9.6 0.00 0.00 0.00 100
20260902164629 100 251 7.8 9.6 0.00 0.00 0.00 100
20260902164129 99 278 7.8 10.4 0.00 0.00 0.00 100
20260902163629 101 271 3.5 6.1 0.00 0.00 0.00 100
20260902163129 100 267 3.5 7.8 0.00 0.00 0.00 100
20260902162629 100 198 2.6 7.8 0.00 0.00 0.00 100
20260902162129 98 261 3.5 7.8 0.00 0.00 0.00 100
20260902161631 99 272 6.1 10.4 0.00 0.00 0.00 100
20260902161129 99 277 5.2 9.6 0.00 0.00 0.00 100
20260902160630 100 279 7.0 8.7 0.00 0.00 0.00 100
20260902160129 97 251 7.8 10.4 0.00 0.00 0.00 100
20260902155629 94 253 5.2 9.6 0.00 0.00 0.00 100
20260902155129 93 275 3.5 8.7 0.00 0.00 0.00 100
20260902154629 95 253 4.3 6.1 0.00 0.00 0.00 100
20260902154129 94 277 4.3 8.7 0.00 0.00 0.00 100
20260902153629 99 278 5.2 9.6 0.00 0.00 0.00 100
20260902153129 100 264 6.1 9.6 0.00 0.00 0.00 100
20260902152629 101 289 6.1 8.7 0.00 0.00 0.00 100
20260902152129 101 271 5.2 7.8 0.00 0.00 0.00 100
20260902151629 101 312 4.3 7.0 0.00 0.00 0.00 100
20260902151129 101 267 5.2 7.0 0.00 0.00 0.00 100
20260902150629 100 251 2.6 7.8 0.00 0.00 0.00 100
20260902150130 99 286 7.0 8.7 0.00 0.00 0.00 100
20260902145629 98 210 6.1 7.8 0.00 0.00 0.00 100
20260902145129 101 243 5.2 8.7 0.00 0.00 0.00 100
20260902144629 100 295 6.1 8.7 0.00 0.00 0.00 100
20260902144129 98 310 6.1 10.4 0.00 0.00 0.00 100
20260902143629 96 271 6.1 9.6 0.00 0.00 0.00 100
20260902143129 99 248 4.3 7.8 0.00 0.00 0.00 100
20260902142629 96 250 2.6 7.8 0.00 0.00 0.00 100
20260902142130 95 220 5.2 7.8 0.00 0.00 0.00 100
20260902141629 93 302 7.0 8.7 0.00 0.00 0.00 100
20260902141129 91 250 2.6 6.1 0.00 0.00 0.00 100
20260902140646 89 226 3.5 7.8 0.00 0.00 0.00 100
20260902140133 87 282 4.3 10.4 0.00 0.00 0.00 100
20260902135629 89 251 4.3 9.6 0.00 0.00 0.00 100
20260902135131 91 285 5.2 8.7 0.00 0.00 0.00 100
20260902134630 93 241 3.5 7.0 0.00 0.00 0.00 100
20260902134129 94 261 2.6 7.8 0.00 0.00 0.00 100
20260902133629 94 243 4.3 7.0 0.00 0.00 0.00 100
20260902133132 93 281 6.1 7.8 0.00 0.00 0.00 100
20260902132635 93 223 6.1 7.8 0.00 0.00 0.00 100
20260902132132 91 268 3.5 8.7 0.00 0.00 0.00 100
20260902131639 92 275 4.3 7.0 0.00 0.00 0.00 100
20260902131134 91 262 5.2 7.0 0.00 0.00 0.00 100
20260902130630 90 261 5.2 8.7 0.00 0.00 0.00 100
20260902130129 91 253 4.3 7.0 0.00 0.00 0.00 100
20260902125631 91 274 4.3 6.1 0.00 0.00 0.00 100
20260902125129 92 257 2.6 4.3 0.00 0.00 0.00 100
20260902123632 90 279 1.7 4.3 0.00 0.00 0.00 100
20260902123132 90 243 2.6 4.3 0.00 0.00 0.00 100
20260902122635 90 261 4.3 5.2 0.00 0.00 0.00 100
20260902122212 89 240 0.9 5.2 0.00 0.00 0.00 100
20260902122140 89 240 0.9 5.2 0.00 0.00 0.00 100
20260902121646 87 284 1.7 5.2 0.00 0.00 0.00 100
20260902121203 85 260 3.5 5.2 0.00 0.00 0.00 100
20260902120635 84 230 2.6 5.2 0.00 0.00 0.00 100
20260902120141 85 250 2.6 3.5 0.00 0.00 0.00 100
20260902115629 85 219 0.9 2.6 0.00 0.00 0.00 100
20260902115133 83 229 1.7 2.6 0.00 0.00 0.00 100
20260902114639 82 309 0.0 2.6 0.00 0.00 0.00 100
20260902114133 80 150 0.9 2.6 0.00 0.00 0.00 100
20260902113629 77 226 1.7 4.3 0.00 0.00 0.00 100
20260902113129 74 250 0.0 4.3 0.00 0.00 0.00 100
20260902113005 73 233 2.6 4.3 0.00 0.00 0.00 100
20260902112633 73 233 0.9 4.3 0.00 0.00 0.00 100
20260902112151 73 233 2.6 4.3 0.00 0.00 0.00 100
20260902111631 73 243 1.7 3.5 0.00 0.00 0.00 100
20260902111136 72 177 1.7 2.6 0.00 0.00 0.00 100
20260902110651 72 299 1.7 1.7 0.00 0.00 0.00 100
20260902110133 72 217 0.0 3.5 0.00 0.00 0.00 100
20260902105629 72 210 0.9 1.7 0.00 0.00 0.00 100
20260902105135 72 306 0.9 3.5 0.00 0.00 0.00 100
20260902104630 72 202 0.9 2.6 0.00 0.00 0.00 100
20260902104133 73 292 0.0 4.3 0.00 0.00 0.00 100
20260902103632 73 212 2.6 4.3 0.00 0.00 0.00 100
20260902103133 72 206 1.7 4.3 0.00 0.00 0.00 100
20260902102721 72 292 1.7 2.6 0.00 0.00 0.00 100
20260902102649 72 292 1.7 2.6 0.00 0.00 0.00 100
20260902102143 72 198 2.6 2.6 0.00 0.00 0.00 100
20260902101629 73 267 1.7 4.3 0.00 0.00 0.00 100
20260902101146 73 230 1.7 3.5 0.00 0.00 0.00 100
20260902100718 73 236 0.9 4.3 0.00 0.00 0.00 100
20260902100646 73 236 0.9 4.3 0.00 0.00 0.00 100
20260902100132 73 213 1.7 3.5 0.00 0.00 0.00 100
20260902095648 73 191 0.9 4.3 0.00 0.00 0.00 100
20260902095137 73 232 1.7 5.2 0.00 0.00 0.00 100
20260902094708 73 243 1.7 2.6 0.00 0.00 0.00 100
20260902094631 73 243 1.7 2.6 0.00 0.00 0.00 100
20260902094144 73 215 1.7 3.5 0.00 0.00 0.00 100
20260902093713 73 247 0.9 3.5 0.00 0.00 0.00 100
20260902093642 73 247 0.9 3.5 0.00 0.00 0.00 100
20260902093135 73 233 2.6 3.5 0.00 0.00 0.00 100
20260902092939 73 232 1.7 3.5 0.00 0.00 0.00 100
20260902092632 73 232 1.7 3.5 0.00 0.00 0.00 100
20260902092129 73 181 0.0 0.9 0.00 0.00 0.00 100
20260902091629 73 223 0.9 2.6 0.00 0.00 0.00 100
20260902091138 73 177 0.0 0.9 0.00 0.00 0.00 100
20260902090630 73 181 0.0 0.9 0.00 0.00 0.00 100
20260902090130 73 161 0.0 0.9 0.00 0.00 0.00 100
20260902085632 73 213 0.9 0.9 0.00 0.00 0.00 100
20260902085145 73 170 0.0 0.0 0.00 0.00 0.00 100
20260902084641 74 241 0.0 0.9 0.00 0.00 0.00 100
20260902084130 74 243 0.0 2.6 0.00 0.00 0.00 100
20260902083711 74 219 1.7 1.7 0.00 0.00 0.00 100
20260902083637 74 219 1.7 1.7 0.00 0.00 0.00 100
20260902083215 74 244 0.9 1.7 0.00 0.00 0.00 100
20260902083137 74 244 0.9 1.7 0.00 0.00 0.00 100
20260902082645 74 195 0.0 0.0 0.00 0.00 0.00 100
20260902082150 74 195 0.0 1.7 0.00 0.00 0.00 100
20260902081632 75 236 1.7 1.7 0.00 0.00 0.00 100
20260902081144 75 234 1.7 1.7 0.00 0.00 0.00 100
20260902080306 75 240 0.9 2.6 0.00 0.00 0.00 100
20260902080231 75 240 0.9 2.6 0.00 0.00 0.00 100
20260902080130 75 240 0.9 2.6 0.00 0.00 0.00 100
20260902075632 75 227 0.9 1.7 0.00 0.00 0.00 100
20260902075216 75 234 0.9 2.6 0.00 0.00 0.00 100
20260902075131 75 234 0.9 2.6 0.00 0.00 0.00 100
20260902074640 75 261 0.9 2.6 0.00 0.00 0.00 100
20260902074133 76 248 1.7 2.6 0.00 0.00 0.00 100
20260902073634 76 243 2.6 4.3 0.00 0.00 0.00 100
20260902073230 76 268 1.7 2.6 0.00 0.00 0.00 100
20260902073145 76 268 1.7 2.6 0.00 0.00 0.00 100
20260902072631 76 232 2.6 3.5 0.00 0.00 0.00 100
20260902072132 76 272 2.6 4.3 0.00 0.00 0.00 100
20260902071630 76 240 0.9 2.6 0.00 0.00 0.00 100
20260902071131 76 284 1.7 2.6 0.00 0.00 0.00 100
20260902070137 76 205 0.9 3.5 0.00 0.00 0.00 100
20260902065636 76 247 0.9 2.6 0.00 0.00 0.00 100
20260902065133 75 241 0.9 1.7 0.00 0.00 0.00 100
20260902064630 75 262 0.9 1.7 0.00 0.00 0.00 100
20260902064202 75 246 0.9 1.7 0.00 0.00 0.00 100
20260902064131 75 246 0.9 1.7 0.00 0.00 0.00 100
20260902063716 75 272 0.9 0.9 0.00 0.00 0.00 100
20260902063630 75 272 0.9 0.9 0.00 0.00 0.00 100
20260902063131 76 243 0.0 1.7 0.00 0.00 0.00 100
20260902062630 76 219 0.0 1.7 0.00 0.00 0.00 100
20260902062134 76 257 0.9 2.6 0.00 0.00 0.00 100
20260902061642 76 262 0.9 1.7 0.00 0.00 0.00 100
20260902061130 76 236 0.9 1.7 0.00 0.00 0.00 100
20260902060631 76 240 1.7 2.6 0.00 0.00 0.00 100
20260902060133 76 264 0.9 2.6 0.00 0.00 0.00 100
20260902055840 77 240 1.7 2.6 0.00 0.00 0.00 100
20260902055637 77 240 1.7 2.6 0.00 0.00 0.00 100
20260902055140 77 240 0.9 2.6 0.00 0.00 0.00 100
20260902054722 77 195 0.9 2.6 0.00 0.00 0.00 100
20260902054631 77 195 0.9 2.6 0.00 0.00 0.00 100
20260902054203 77 267 0.9 3.5 0.00 0.00 0.00 100
20260902054130 77 267 0.9 3.5 0.00 0.00 0.00 100
20260902053630 77 264 1.7 3.5 0.00 0.00 0.00 100
20260902053141 77 243 1.7 4.3 0.00 0.00 0.00 100
20260902052632 78 267 2.6 5.2 0.00 0.00 0.00 100
20260902052132 78 292 3.5 4.3 0.00 0.00 0.00 100
20260902051630 77 246 3.5 4.3 0.00 0.00 0.00 100
20260902051133 77 274 3.5 4.3 0.00 0.00 0.00 100
20260902050630 77 244 2.6 5.2 0.00 0.00 0.00 100
20260902050130 78 270 2.6 4.3 0.00 0.00 0.00 100
20260902045630 78 285 3.5 5.2 0.00 0.00 0.00 100
20260902045130 78 261 1.7 5.2 0.00 0.00 0.00 100
20260902044637 78 233 3.5 5.2 0.00 0.00 0.00 100
20260902044211 78 340 1.7 5.2 0.00 0.00 0.00 100
20260902044131 78 340 1.7 5.2 0.00 0.00 0.00 100
20260902043630 78 251 5.2 5.2 0.00 0.00 0.00 100
20260902043132 78 277 2.6 4.3 0.00 0.00 0.00 100
20260902042630 78 254 3.5 5.2 0.00 0.00 0.00 100
20260902042211 78 246 2.6 4.3 0.00 0.00 0.00 100
20260902042138 78 246 2.6 4.3 0.00 0.00 0.00 100
20260902041630 78 246 1.7 3.5 0.00 0.00 0.00 100
20260902041138 78 271 1.7 3.5 0.00 0.00 0.00 100
20260902040634 78 247 1.7 2.6 0.00 0.00 0.00 100
20260902040142 78 232 0.9 3.5 0.00 0.00 0.00 100
20260902035630 79 288 0.9 2.6 0.00 0.00 0.00 100
20260902035132 79 288 1.7 3.5 0.00 0.00 0.00 100
20260902034632 79 303 1.7 4.3 0.00 0.00 0.00 100
20260902034139 79 234 0.9 3.5 0.00 0.00 0.00 100
20260902033631 79 243 2.6 3.5 0.00 0.00 0.00 100
20260902033134 79 250 0.0 4.3 0.00 0.00 0.00 100
20260902032632 79 251 1.7 3.5 0.00 0.00 0.00 100
20260902032132 79 208 1.7 2.6 0.00 0.00 0.00 100
20260902031135 80 288 1.7 2.6 0.00 0.00 0.00 100
20260902030634 79 257 0.9 1.7 0.00 0.00 0.00 100
20260902030130 80 315 0.0 3.5 0.00 0.00 0.00 100
20260902025630 80 241 0.9 4.3 0.00 0.00 0.00 100
20260902025130 80 230 2.6 4.3 0.00 0.00 0.00 100
20260902024630 80 205 0.9 5.2 0.00 0.00 0.00 100
20260902023630 80 244 1.7 4.3 0.00 0.00 0.00 100
20260902023131 81 233 1.7 4.3 0.00 0.00 0.00 100
20260902022631 81 205 1.7 5.2 0.00 0.00 0.00 100
20260902022131 81 215 3.5 4.3 0.00 0.00 0.00 100
20260902021630 81 212 3.5 3.5 0.00 0.00 0.00 100
20260902020631 81 278 2.6 4.3 0.00 0.00 0.00 100
20260902020130 81 253 1.7 4.3 0.00 0.00 0.00 100
20260902015630 82 243 0.9 3.5 0.00 0.00 0.00 100
20260902015132 82 248 2.6 4.3 0.00 0.00 0.00 100
20260902014631 82 310 1.7 4.3 0.00 0.00 0.00 100
20260902014134 82 233 1.7 5.2 0.00 0.00 0.00 100
20260902013630 82 239 2.6 4.3 0.00 0.00 0.00 100
20260902013130 82 239 2.6 3.5 0.00 0.00 0.00 100
20260902012630 82 233 1.7 3.5 0.00 0.00 0.00 100
20260902012132 82 239 2.6 3.5 0.00 0.00 0.00 100
20260902011631 82 240 1.7 3.5 0.00 0.00 0.00 100
20260902011133 82 251 0.9 2.6 0.00 0.00 0.00 100